49P/Arend-Rigaux (2025)

Japanese version
Home page
Updated on October 1, 2025

---------------------------------------------------------------------

* Profile

* Pictures

* Orbital Elements

Epoch 2025 May 5.0 TT = JDT 2460800.5
T 2025 Apr. 10.61181 TT                                 Pike
q   1.4313483            (2000.0)            P               Q
n   0.14612116     Peri.  332.93076     -0.05190922     -0.95676839
a   3.5699378      Node   118.79103     +0.96515481     -0.12166189
e   0.5990551      Incl.   19.05941     +0.25647929     +0.26418295
P   6.75
From 4356 observations 2004 June 24-2025 May 25, mean residual 0".6.
     Nongravitational parameters A1 = -0.02, A2 = -0.0008.

* Finding Charts

* Magnitudes Graph

        H = 13.5  G = 0.15                       [    ,-135]  (             - 2024 Nov. 26)
        m1 = 9.3 + 5 log d + 22.0 log r(t - 10)  [-135, 132]  (2024 Nov. 26 - 2025 Aug. 20)
        H = 13.5  G = 0.15                       [ 132,    ]  (2025 Aug. 20 -             )

---------------------------------------------------------------------

The orbital elements are published on M.P.E.C. 2025-M120.
The charts are made with StellaNavigator Ver.10 (AstroArts).
The magnitudes graphs are made with Comet for Windows.

---------------------------------------------------------------------

Copyright(C) Seiichi Yoshida (comet@aerith.net). All rights reserved.